Beaufort MCAS, SC

1:36 AM EDT on May 23, 2017 (GMT -0400)
Beaufort Marine Corps Air Station

Weather History for KNBC - January, 2013

Change the Weather History Date:

Saturday, January 26, 2013

  Actual Average Record
Temperature  
Mean Temperature 52 °F -  
Max Temperature 64 °F 59 °F 82 °F (1949)
Min Temperature 41 °F 39 °F 15 °F (2005)
Degree Days  
Heating Degree Days 12    
Growing Degree Days 2 (Base 50)    
Moisture  
Dew Point 41 °F    
Average Humidity 70    
Maximum Humidity 89    
Minimum Humidity 27    
Precipitation  
Precipitation 0.00 in - - ()
Sea Level Pressure  
Sea Level Pressure 30.20 in    
Wind  
Wind Speed 3 mph (NNE)    
Max Wind Speed 10 mph    
Max Gust Speed -    
Visibility 10 miles    
Events      
Averages and records for this station are not official NWS values.
T = Trace of Precipitation, MM = Missing Value Source: NWS Daily Summary

Daily Weather History Graph

Daily Weather History Graph

Search for Another Location

Airport or City:

Trip Planner

Search our weather history database for the weather conditions in past years. The results will help you decide how hot, cold, wet, or windy it might be!

Date:

Astronomy

Jan. 26, 2013 Rise Set
Actual Time 7:20 AM EST 5:50 PM EST
Civil Twilight 6:54 AM EST 6:16 PM EST
Nautical Twilight 6:24 AM EST 6:46 PM EST
Astronomical Twilight 5:55 AM EST 7:15 PM EST
Moon 5:41 PM EST (1/26) 6:39 AM EST (1/26)
Length of Visible Light 11h 22m
Length of Day
10h 30m
Full, 100% of the Moon is Illuminated
Jan 26
Full
Jan 26
Full
Feb 3
Last Quarter
Feb 10
New
Feb 17
First Quarter

Hourly Weather History & Observations

Time (EST) Temp. Windchill Dew Point Humidity Pressure Visibility Wind Dir Wind Speed Gust Speed Precip Events Conditions
12:56 AM 43.0 °F - 37.9 °F 82% 30.16 in 10.0 mi Calm Calm - N/A   Clear
1:56 AM 43.0 °F - 39.0 °F 86% 30.15 in 10.0 mi Calm Calm - N/A   Clear
2:56 AM 43.0 °F - 39.0 °F 86% 30.14 in 10.0 mi Calm Calm - N/A   Partly Cloudy
3:56 AM 43.0 °F 41.3 °F 39.9 °F 89% 30.14 in 9.0 mi NNE 3.5 mph - N/A   Mostly Cloudy
4:56 AM 41.0 °F 39.0 °F 37.9 °F 89% 30.14 in 8.0 mi North 3.5 mph - N/A   Scattered Clouds
5:56 AM 42.1 °F - 39.0 °F 89% 30.15 in 9.0 mi Calm Calm - N/A   Partly Cloudy
6:56 AM 44.1 °F - 39.0 °F 82% 30.15 in 9.0 mi Calm Calm - N/A   Scattered Clouds
7:56 AM 45.0 °F - 39.9 °F 82% 30.17 in 9.0 mi Calm Calm - N/A   Partly Cloudy
8:56 AM 48.9 °F - 41.0 °F 74% 30.20 in 10.0 mi WNW 4.6 mph - N/A   Mostly Cloudy
9:56 AM 57.0 °F - 48.0 °F 72% 30.21 in 10.0 mi West 10.4 mph - N/A   Overcast
10:56 AM 57.0 °F - 46.0 °F 67% 30.22 in 10.0 mi North 6.9 mph - N/A   Mostly Cloudy
11:03 AM 57.2 °F - 46.4 °F 67% 30.22 in 10.0 mi North 8.1 mph - N/A   Scattered Clouds
11:56 AM 61.0 °F - 46.9 °F 60% 30.20 in 10.0 mi NNW 6.9 mph - N/A   Clear
12:56 PM 64.0 °F - 44.1 °F 48% 30.18 in 10.0 mi North 10.4 mph - N/A   Clear
1:56 PM 62.1 °F - 36.0 °F 38% 30.18 in 10.0 mi NNW 6.9 mph - N/A   Clear
2:56 PM 62.1 °F - 30.9 °F 31% 30.17 in 10.0 mi NNW 10.4 mph - N/A   Clear
3:56 PM 64.9 °F - 30.0 °F 27% 30.19 in 10.0 mi NNW 6.9 mph - N/A   Clear
4:56 PM 59.0 °F - 37.0 °F 44% 30.20 in 10.0 mi NE 8.1 mph - N/A   Clear
5:56 PM 55.0 °F - 37.9 °F 53% 30.22 in 10.0 mi Calm Calm - N/A   Clear
6:56 PM 50.0 °F - 42.1 °F 74% 30.23 in 10.0 mi Calm Calm - N/A   Clear
7:56 PM 51.1 °F - 45.0 °F 80% 30.25 in 10.0 mi ESE 4.6 mph - N/A   Clear
8:56 PM 51.1 °F - 45.0 °F 80% 30.26 in 10.0 mi East 4.6 mph - N/A   Clear
9:56 PM 48.9 °F - 43.0 °F 80% 30.29 in 10.0 mi East 4.6 mph - N/A   Clear
10:56 PM 48.9 °F - 42.1 °F 77% 30.30 in 10.0 mi East 6.9 mph - N/A   Clear
11:56 PM 45.0 °F 41.8 °F 39.9 °F 82% 30.31 in 10.0 mi ENE 5.8 mph - N/A   Clear